| time (UTC) | temp C | wind direction | speed KPH | gust KPH | rain 1hr cm | rain 24hr cm | rain mn cm | humidity % | barometer mb |
| 20260507001600 | 10 | 313 | 0.0 | 0.0 | 0.00 | 1.55 | 0.43 | 61 | 1015.4 |
| 20260507001031 | 11 | 312 | 0.0 | 0.0 | 0.00 | 1.55 | 0.43 | 61 | 1015.4 |
| 20260507000527 | 11 | 304 | 0.0 | 0.0 | 0.00 | 1.55 | 0.43 | 60 | 1015.5 |
| 20260507000032 | 11 | 312 | 0.0 | 0.0 | 0.00 | 1.55 | 0.43 | 59 | 1015.4 |
| 20260506235527 | 11 | 268 | 0.0 | 0.0 | 0.00 | 1.88 | 0.43 | 60 | 1015.4 |
| 20260506235027 | 11 | 317 | 0.0 | 1.6 | 0.00 | 1.88 | 0.43 | 60 | 1015.3 |
| 20260506234527 | 11 | 306 | 0.0 | 1.6 | 0.00 | 1.88 | 0.43 | 59 | 1015.2 |
| 20260506234027 | 11 | 305 | 0.0 | 1.6 | 0.00 | 1.88 | 0.43 | 59 | 1015.2 |
| 20260506233527 | 11 | 285 | 0.0 | 1.6 | 0.00 | 1.88 | 0.43 | 59 | 1015.2 |
| 20260506233027 | 11 | 263 | 0.0 | 0.0 | 0.00 | 1.88 | 0.43 | 60 | 1015.2 |
| 20260506232525 | 11 | 319 | 0.0 | 0.0 | 0.00 | 1.88 | 0.43 | 59 | 1015.3 |
| 20260506232025 | 11 | 269 | 0.0 | 0.0 | 0.00 | 1.88 | 0.43 | 61 | 1015.4 |
| 20260506231526 | 11 | 306 | 0.0 | 0.0 | 0.00 | 1.88 | 0.43 | 61 | 1015.3 |
| 20260506231026 | 11 | 310 | 0.0 | 0.0 | 0.00 | 1.88 | 0.43 | 58 | 1015.4 |
| 20260506230528 | 11 | 327 | 0.0 | 0.0 | 0.00 | 1.88 | 0.43 | 58 | 1015.4 |
| 20260506230038 | 11 | 327 | 0.0 | 0.0 | 0.00 | 1.88 | 0.43 | 57 | 1015.6 |
| 20260506225525 | 11 | 321 | 0.0 | 0.0 | 0.00 | 1.93 | 0.43 | 58 | 1015.7 |
| 20260506225025 | 11 | 291 | 0.0 | 0.0 | 0.00 | 1.93 | 0.43 | 58 | 1015.7 |
| 20260506224525 | 11 | 279 | 0.0 | 0.0 | 0.00 | 1.93 | 0.43 | 58 | 1015.8 |
| 20260506224024 | 11 | 313 | 0.0 | 0.0 | 0.00 | 1.93 | 0.43 | 58 | 1015.7 |
| 20260506223523 | 11 | 284 | 0.0 | 0.0 | 0.00 | 1.93 | 0.43 | 59 | 1015.7 |
| 20260506223029 | 11 | 355 | 0.0 | 0.0 | 0.00 | 1.93 | 0.43 | 57 | 1015.6 |
| 20260506222525 | 11 | 256 | 0.0 | 0.0 | 0.00 | 1.93 | 0.43 | 57 | 1015.5 |
| 20260506222022 | 11 | 296 | 0.0 | 0.0 | 0.00 | 1.93 | 0.43 | 56 | 1015.4 |
| 20260506221521 | 11 | 309 | 0.0 | 0.0 | 0.00 | 1.93 | 0.43 | 56 | 1015.4 |
| 20260506221021 | 11 | 318 | 0.0 | 0.0 | 0.00 | 1.93 | 0.43 | 55 | 1015.4 |
| 20260506220521 | 11 | 278 | 0.0 | 0.0 | 0.00 | 1.93 | 0.43 | 57 | 1015.4 |
| 20260506220021 | 11 | 311 | 0.0 | 0.0 | 0.00 | 1.93 | 0.43 | 55 | 1015.4 |
| 20260506215520 | 11 | 284 | 0.0 | 0.0 | 0.00 | 2.08 | 0.43 | 56 | 1015.3 |
| 20260506215020 | 11 | 250 | 0.0 | 0.0 | 0.00 | 2.08 | 0.43 | 55 | 1015.3 |
| 20260506214522 | 11 | 308 | 0.0 | 0.0 | 0.00 | 2.08 | 0.43 | 55 | 1015.3 |
| 20260506214019 | 11 | 283 | 0.0 | 1.6 | 0.00 | 2.08 | 0.43 | 53 | 1015.3 |
| 20260506213521 | 11 | 315 | 0.0 | 1.6 | 0.00 | 2.08 | 0.43 | 55 | 1015.0 |
| 20260506213018 | 11 | 335 | 0.0 | 3.2 | 0.00 | 2.08 | 0.43 | 56 | 1014.9 |
| 20260506212518 | 11 | 342 | 0.0 | 3.2 | 0.00 | 2.08 | 0.43 | 54 | 1014.8 |
| 20260506212017 | 11 | 294 | 0.0 | 3.2 | 0.00 | 2.08 | 0.43 | 52 | 1014.9 |
| 20260506211521 | 11 | 295 | 0.0 | 1.6 | 0.00 | 2.08 | 0.43 | 55 | 1014.9 |
| 20260506211017 | 11 | 311 | 0.0 | 1.6 | 0.00 | 2.08 | 0.43 | 55 | 1014.9 |
| 20260506210522 | 11 | 323 | 0.0 | 0.0 | 0.00 | 2.08 | 0.43 | 55 | 1014.9 |
| 20260506210036 | 11 | 281 | 0.0 | 11.3 | 0.00 | 2.08 | 0.43 | 54 | 1015.0 |
| 20260506205515 | 11 | 287 | 0.0 | 11.3 | 0.00 | 2.26 | 0.43 | 54 | 1014.9 |
| 20260506205019 | 11 | 300 | 0.0 | 3.2 | 0.00 | 2.26 | 0.43 | 54 | 1014.8 |
| 20260506204515 | 12 | 291 | 0.0 | 3.2 | 0.00 | 2.26 | 0.43 | 53 | 1014.8 |
| 20260506204014 | 12 | 340 | 0.0 | 3.2 | 0.00 | 2.26 | 0.43 | 54 | 1014.9 |
| 20260506203514 | 12 | 316 | 0.0 | 3.2 | 0.00 | 2.26 | 0.43 | 53 | 1014.7 |
| 20260506203014 | 12 | 272 | 0.0 | 11.3 | 0.00 | 2.26 | 0.43 | 54 | 1014.7 |
| 20260506202519 | 12 | 328 | 0.0 | 14.5 | 0.00 | 2.26 | 0.43 | 54 | 1014.6 |
| 20260506202013 | 12 | 329 | 0.0 | 12.9 | 0.00 | 2.26 | 0.43 | 52 | 1014.6 |
| 20260506201519 | 12 | 274 | 0.0 | 4.8 | 0.00 | 2.26 | 0.43 | 56 | 1014.5 |
| 20260506201014 | 12 | 348 | 0.0 | 12.9 | 0.00 | 2.26 | 0.43 | 58 | 1014.6 |
| 20260506200514 | 12 | 322 | 1.6 | 12.9 | 0.00 | 2.26 | 0.43 | 57 | 1014.5 |
| 20260506200013 | 12 | 306 | 0.0 | 8.0 | 0.00 | 2.26 | 0.43 | 56 | 1014.5 |
| 20260506195512 | 12 | 332 | 0.0 | 8.0 | 0.00 | 2.26 | 0.43 | 56 | 1014.7 |
| 20260506195012 | 12 | 349 | 0.0 | 3.2 | 0.00 | 2.26 | 0.43 | 59 | 1014.6 |
| 20260506194516 | 12 | 328 | 0.0 | 0.0 | 0.00 | 2.26 | 0.43 | 59 | 1014.7 |
| 20260506194016 | 12 | 331 | 0.0 | 4.8 | 0.00 | 2.26 | 0.43 | 55 | 1014.8 |
| 20260506193511 | 12 | 315 | 0.0 | 4.8 | 0.00 | 2.26 | 0.43 | 57 | 1014.8 |
| 20260506193021 | 12 | 279 | 0.0 | 1.6 | 0.00 | 2.26 | 0.43 | 54 | 1014.9 |
| 20260506192511 | 12 | 360 | 0.0 | 1.6 | 0.00 | 2.26 | 0.43 | 56 | 1014.6 |
| 20260506192010 | 12 | 303 | 0.0 | 12.9 | 0.00 | 2.26 | 0.43 | 52 | 1014.8 |
| 20260506191512 | 12 | 288 | 0.0 | 12.9 | 0.00 | 2.26 | 0.43 | 53 | 1014.6 |
| 20260506191010 | 12 | 346 | 0.0 | 4.8 | 0.00 | 2.26 | 0.43 | 57 | 1014.6 |
| 20260506190511 | 12 | 329 | 0.0 | 4.8 | 0.00 | 2.26 | 0.43 | 60 | 1014.6 |
| 20260506190012 | 12 | 304 | 0.0 | 3.2 | 0.00 | 2.26 | 0.43 | 55 | 1014.6 |
| 20260506185512 | 12 | 321 | 0.0 | 16.1 | 0.00 | 2.34 | 0.43 | 56 | 1014.6 |
| 20260506185010 | 12 | 346 | 0.0 | 16.1 | 0.00 | 2.34 | 0.43 | 55 | 1014.5 |
| 20260506184609 | 12 | 320 | 0.0 | 0.0 | 0.00 | 2.34 | 0.43 | 58 | 1014.5 |
| 20260506184009 | 12 | 323 | 0.0 | 1.6 | 0.00 | 2.34 | 0.43 | 57 | 1014.5 |
| 20260506183510 | 12 | 308 | 0.0 | 12.9 | 0.00 | 2.34 | 0.43 | 56 | 1014.5 |
| 20260506183008 | 12 | 334 | 0.0 | 12.9 | 0.00 | 2.34 | 0.43 | 57 | 1014.4 |
| 20260506182511 | 12 | 355 | 0.0 | 4.8 | 0.00 | 2.34 | 0.43 | 57 | 1014.6 |
| 20260506182007 | 12 | 340 | 0.0 | 3.2 | 0.00 | 2.34 | 0.43 | 57 | 1014.6 |
| 20260506181510 | 12 | 348 | 0.0 | 17.7 | 0.00 | 2.34 | 0.43 | 62 | 1014.6 |
| 20260506181007 | 12 | 348 | 0.0 | 14.5 | 0.00 | 2.34 | 0.43 | 61 | 1014.7 |
| 20260506180507 | 12 | 308 | 0.0 | 22.5 | 0.00 | 2.34 | 0.43 | 56 | 1014.8 |
| 20260506180009 | 12 | 320 | 3.2 | 22.5 | 0.00 | 2.34 | 0.43 | 56 | 1014.7 |
| 20260506175505 | 12 | 16 | 0.0 | 20.9 | 0.00 | 2.34 | 0.43 | 58 | 1014.6 |
| 20260506175006 | 12 | 350 | 9.7 | 22.5 | 0.00 | 2.34 | 0.43 | 58 | 1014.5 |
| 20260506174504 | 12 | 338 | 0.0 | 22.5 | 0.00 | 2.34 | 0.43 | 57 | 1014.6 |
| 20260506174004 | 13 | 22 | 0.0 | 20.9 | 0.00 | 2.34 | 0.43 | 58 | 1014.4 |
| 20260506173506 | 13 | 340 | 3.2 | 22.5 | 0.00 | 2.34 | 0.43 | 60 | 1014.4 |
| 20260506173003 | 13 | 333 | 3.2 | 22.5 | 0.00 | 2.34 | 0.43 | 61 | 1014.2 |
| 20260506172502 | 12 | 9 | 0.0 | 9.7 | 0.00 | 2.34 | 0.43 | 61 | 1014.4 |
| 20260506172002 | 12 | 360 | 0.0 | 9.7 | 0.00 | 2.34 | 0.43 | 61 | 1014.5 |
| 20260506171600 | 12 | 22 | 0.0 | 8.0 | 0.00 | 2.34 | 0.43 | 64 | 1014.5 |
| 20260506171059 | 12 | 321 | 0.0 | 0.0 | 0.00 | 2.34 | 0.43 | 62 | 1014.6 |
| 20260506170600 | 12 | 314 | 0.0 | 8.0 | 0.00 | 2.34 | 0.43 | 61 | 1014.5 |
| 20260506170109 | 12 | 329 | 0.0 | 8.0 | 0.00 | 2.34 | 0.43 | 60 | 1014.4 |
| 20260506165559 | 12 | 355 | 0.0 | 4.8 | 0.00 | 2.34 | 0.43 | 58 | 1014.5 |
| 20260506165101 | 12 | 319 | 0.0 | 16.1 | 0.00 | 2.34 | 0.43 | 62 | 1014.3 |
| 20260506164625 | 12 | 325 | 0.0 | 17.7 | 0.00 | 2.34 | 0.43 | 61 | 1014.3 |
| 20260506164058 | 12 | 321 | 0.0 | 19.3 | 0.00 | 2.34 | 0.43 | 62 | 1014.4 |
| 20260506163600 | 12 | 327 | 3.2 | 19.3 | 0.00 | 2.34 | 0.43 | 64 | 1014.5 |
| 20260506163106 | 12 | 360 | 0.0 | 22.5 | 0.00 | 2.34 | 0.43 | 65 | 1014.4 |
| 20260506162555 | 12 | 355 | 4.8 | 22.5 | 0.00 | 2.34 | 0.43 | 64 | 1014.3 |
| 20260506162055 | 12 | 29 | 1.6 | 19.3 | 0.00 | 2.34 | 0.43 | 68 | 1014.1 |
| 20260506161554 | 12 | 342 | 8.0 | 20.9 | 0.00 | 2.34 | 0.43 | 63 | 1014.1 |
| 20260506161058 | 12 | 355 | 0.0 | 20.9 | 0.00 | 2.34 | 0.43 | 63 | 1014.2 |
| 20260506160553 | 12 | 342 | 6.4 | 25.7 | 0.00 | 2.34 | 0.43 | 66 | 1014.4 |
| 20260506160059 | 12 | 321 | 4.8 | 25.7 | 0.00 | 2.34 | 0.43 | 64 | 1014.4 |
| 20260506155553 | 12 | 321 | 1.6 | 17.7 | 0.00 | 2.34 | 0.43 | 65 | 1014.4 |
| 20260506155050 | 12 | 355 | 0.0 | 22.5 | 0.00 | 2.34 | 0.43 | 71 | 1014.4 |
| 20260506154553 | 12 | 355 | 6.4 | 22.5 | 0.00 | 2.34 | 0.43 | 70 | 1014.4 |
| 20260506154048 | 11 | 9 | 1.6 | 20.9 | 0.00 | 2.34 | 0.43 | 67 | 1014.1 |
| 20260506153549 | 11 | 12 | 3.2 | 20.9 | 0.00 | 2.34 | 0.43 | 70 | 1014.1 |
| 20260506153044 | 11 | 337 | 4.8 | 14.5 | 0.00 | 2.34 | 0.43 | 69 | 1013.9 |
| 20260506152543 | 11 | 335 | 0.0 | 17.7 | 0.00 | 2.34 | 0.43 | 69 | 1013.7 |
| 20260506152045 | 11 | 304 | 9.7 | 17.7 | 0.00 | 2.34 | 0.43 | 71 | 1013.5 |
| 20260506151543 | 11 | 9 | 8.0 | 19.3 | 0.00 | 2.34 | 0.43 | 74 | 1013.6 |
| 20260506151039 | 11 | 11 | 12.9 | 19.3 | 0.00 | 2.34 | 0.43 | 73 | 1013.6 |
| 20260506150539 | 10 | 360 | 0.0 | 14.5 | 0.00 | 2.34 | 0.43 | 75 | 1013.6 |
| 20260506150043 | 10 | 312 | 4.8 | 16.1 | 0.00 | 2.34 | 0.43 | 72 | 1013.5 |
| 20260506145537 | 10 | 355 | 6.4 | 16.1 | 0.00 | 2.34 | 0.43 | 74 | 1013.6 |
| 20260506145036 | 10 | 355 | 6.4 | 17.7 | 0.00 | 2.34 | 0.43 | 74 | 1013.7 |
| 20260506144536 | 10 | 323 | 9.7 | 20.9 | 0.00 | 2.34 | 0.43 | 76 | 1013.5 |
| 20260506144035 | 10 | 314 | 6.4 | 20.9 | 0.00 | 2.34 | 0.43 | 76 | 1013.6 |
| 20260506143533 | 10 | 317 | 8.0 | 16.1 | 0.00 | 2.34 | 0.43 | 78 | 1013.5 |
| 20260506143037 | 10 | 332 | 8.0 | 17.7 | 0.00 | 2.34 | 0.43 | 78 | 1013.4 |
| 20260506142530 | 9 | 327 | 3.2 | 17.7 | 0.00 | 2.34 | 0.43 | 77 | 1013.5 |
| 20260506142028 | 9 | 341 | 6.4 | 14.5 | 0.00 | 2.34 | 0.43 | 76 | 1013.5 |
| 20260506141533 | 9 | 341 | 4.8 | 16.1 | 0.00 | 2.34 | 0.43 | 77 | 1013.2 |
| 20260506141028 | 9 | 315 | 9.7 | 20.9 | 0.00 | 2.34 | 0.43 | 78 | 1013.3 |
| 20260506140528 | 8 | 329 | 6.4 | 20.9 | 0.00 | 2.34 | 0.43 | 78 | 1013.0 |
| 20260506140026 | 8 | 355 | 11.3 | 17.7 | 0.00 | 2.34 | 0.43 | 78 | 1013.1 |
| 20260506135523 | 8 | 279 | 9.7 | 17.7 | 0.00 | 2.34 | 0.43 | 77 | 1013.0 |
| 20260506135022 | 8 | 305 | 8.0 | 17.7 | 0.00 | 2.34 | 0.43 | 80 | 1012.9 |
| 20260506134521 | 8 | 338 | 11.3 | 17.7 | 0.00 | 2.34 | 0.43 | 80 | 1012.9 |
| 20260506134020 | 8 | 350 | 6.4 | 14.5 | 0.00 | 2.34 | 0.43 | 83 | 1012.8 |
| 20260506133518 | 7 | 336 | 9.7 | 16.1 | 0.00 | 2.34 | 0.43 | 83 | 1012.7 |
| 20260506133018 | 7 | 360 | 8.0 | 16.1 | 0.00 | 2.34 | 0.43 | 83 | 1012.8 |
| 20260506132519 | 7 | 331 | 12.9 | 16.1 | 0.00 | 2.34 | 0.43 | 84 | 1012.7 |
| 20260506132015 | 7 | 334 | 6.4 | 12.9 | 0.00 | 2.34 | 0.43 | 85 | 1012.9 |
| 20260506131515 | 7 | 339 | 4.8 | 12.9 | 0.00 | 2.34 | 0.43 | 86 | 1012.9 |
| 20260506131017 | 7 | 312 | 0.0 | 0.0 | 0.00 | 2.34 | 0.43 | 86 | 1012.9 |
| 20260506130514 | 7 | 355 | 0.0 | 0.0 | 0.00 | 2.34 | 0.43 | 87 | 1012.8 |
| 20260506130013 | 7 | 323 | 0.0 | 0.0 | 0.00 | 2.34 | 0.43 | 86 | 1012.7 |
| 20260506125516 | 7 | 327 | 0.0 | 0.0 | 0.00 | 2.34 | 0.43 | 87 | 1012.7 |
| 20260506125010 | 7 | 350 | 0.0 | 0.0 | 0.00 | 2.34 | 0.43 | 87 | 1012.6 |
| 20260506124510 | 7 | 327 | 0.0 | 0.0 | 0.00 | 2.34 | 0.43 | 87 | 1012.6 |
| 20260506124009 | 6 | 304 | 0.0 | 0.0 | 0.00 | 2.34 | 0.43 | 88 | 1012.6 |
| 20260506123508 | 6 | 355 | 0.0 | 0.0 | 0.00 | 2.34 | 0.43 | 88 | 1012.3 |
| 20260506123007 | 6 | 5 | 0.0 | 0.0 | 0.00 | 2.34 | 0.43 | 88 | 1012.2 |
| 20260506122506 | 6 | 340 | 0.0 | 0.0 | 0.00 | 2.34 | 0.43 | 89 | 1012.2 |
| 20260506122007 | 6 | 355 | 0.0 | 0.0 | 0.00 | 2.34 | 0.43 | 89 | 1012.1 |
| 20260506121508 | 6 | 350 | 0.0 | 0.0 | 0.00 | 2.34 | 0.43 | 89 | 1012.2 |
| 20260506121004 | 6 | 323 | 0.0 | 0.0 | 0.00 | 2.34 | 0.43 | 89 | 1012.1 |
| 20260506120502 | 6 | 344 | 0.0 | 0.0 | 0.00 | 2.34 | 0.43 | 89 | 1011.9 |
| 20260506120001 | 6 | 355 | 0.0 | 9.7 | 0.00 | 2.34 | 0.43 | 89 | 1011.9 |
| 20260506115503 | 6 | 336 | 6.4 | 12.9 | 0.00 | 2.34 | 0.43 | 89 | 1011.9 |
| 20260506115000 | 6 | 347 | 6.4 | 12.9 | 0.00 | 2.34 | 0.43 | 89 | 1011.7 |
| 20260506114600 | 6 | 355 | 8.0 | 12.9 | 0.00 | 2.34 | 0.43 | 90 | 1011.7 |
| 20260506114103 | 6 | 344 | 1.6 | 8.0 | 0.00 | 2.34 | 0.43 | 90 | 1011.5 |
| 20260506113558 | 6 | 351 | 0.0 | 6.4 | 0.00 | 2.34 | 0.43 | 90 | 1011.4 |
| 20260506113057 | 6 | 344 | 0.0 | 6.4 | 0.00 | 2.34 | 0.43 | 90 | 1011.1 |
| 20260506112556 | 6 | 336 | 0.0 | 1.6 | 0.00 | 2.34 | 0.43 | 90 | 1011.0 |
| 20260506112054 | 6 | 5 | 0.0 | 16.1 | 0.00 | 2.34 | 0.43 | 90 | 1010.6 |
| 20260506111553 | 6 | 355 | 0.0 | 16.1 | 0.00 | 2.34 | 0.43 | 91 | 1010.7 |
| 20260506111053 | 6 | 360 | 11.3 | 16.1 | 0.00 | 2.34 | 0.43 | 91 | 1010.6 |
| 20260506110552 | 6 | 360 | 3.2 | 12.9 | 0.00 | 2.34 | 0.43 | 91 | 1010.8 |
| 20260506110101 | 6 | 355 | 0.0 | 0.0 | 0.00 | 2.34 | 0.43 | 91 | 1010.8 |
| 20260506105551 | 6 | 5 | 0.0 | 14.5 | 0.00 | 2.36 | 0.43 | 91 | 1010.6 |
| 20260506105050 | 6 | 24 | 3.2 | 14.5 | 0.00 | 2.36 | 0.43 | 91 | 1010.6 |
| 20260506104603 | 6 | 5 | 0.0 | 12.9 | 0.00 | 2.36 | 0.43 | 91 | 1010.8 |
| 20260506104050 | 6 | 9 | 0.0 | 0.0 | 0.00 | 2.36 | 0.43 | 91 | 1010.7 |
| 20260506103549 | 6 | 360 | 0.0 | 16.1 | 0.00 | 2.36 | 0.43 | 92 | 1010.8 |
| 20260506103050 | 6 | 340 | 0.0 | 16.1 | 0.00 | 2.36 | 0.43 | 92 | 1010.7 |
| 20260506102551 | 6 | 360 | 3.2 | 16.1 | 0.00 | 2.36 | 0.43 | 92 | 1010.3 |
| 20260506102052 | 6 | 348 | 6.4 | 19.3 | 0.00 | 2.36 | 0.43 | 92 | 1010.0 |
| 20260506101549 | 6 | 20 | 11.3 | 19.3 | 0.00 | 2.36 | 0.43 | 92 | 1010.0 |
| 20260506101047 | 6 | 355 | 1.6 | 22.5 | 0.00 | 2.36 | 0.43 | 93 | 1010.0 |
| 20260506100546 | 6 | 355 | 0.0 | 22.5 | 0.00 | 2.36 | 0.43 | 93 | 1010.3 |
| 20260506100053 | 6 | 346 | 3.2 | 17.7 | 0.00 | 2.36 | 0.43 | 93 | 1010.5 |
| 20260506095545 | 6 | 345 | 0.0 | 19.3 | 0.00 | 2.41 | 0.43 | 94 | 1010.2 |
| 20260506095044 | 6 | 351 | 0.0 | 19.3 | 0.00 | 2.41 | 0.43 | 94 | 1009.9 |
| 20260506094544 | 6 | 355 | 11.3 | 20.9 | 0.03 | 2.41 | 0.43 | 94 | 1009.9 |
| 20260506094045 | 6 | 344 | 12.9 | 22.5 | 0.03 | 2.41 | 0.43 | 94 | 1009.8 |
| 20260506093543 | 6 | 333 | 16.1 | 19.3 | 0.03 | 2.41 | 0.43 | 94 | 1009.5 |
| 20260506093042 | 6 | 5 | 11.3 | 19.3 | 0.03 | 2.41 | 0.43 | 94 | 1009.2 |
| 20260506092542 | 6 | 355 | 12.9 | 17.7 | 0.03 | 2.41 | 0.43 | 94 | 1009.2 |
| 20260506092045 | 6 | 355 | 1.6 | 14.5 | 0.03 | 2.41 | 0.43 | 94 | 1009.6 |
| 20260506091542 | 6 | 355 | 0.0 | 0.0 | 0.03 | 2.41 | 0.43 | 94 | 1009.6 |
| 20260506091043 | 6 | 5 | 0.0 | 0.0 | 0.03 | 2.41 | 0.43 | 94 | 1009.1 |
| 20260506090541 | 6 | 5 | 0.0 | 0.0 | 0.03 | 2.41 | 0.43 | 93 | 1009.1 |
| 20260506090042 | 6 | 30 | 0.0 | 0.0 | 0.03 | 2.41 | 0.43 | 93 | 1008.7 |
| 20260506085541 | 6 | 33 | 0.0 | 9.7 | 0.03 | 2.41 | 0.43 | 93 | 1008.8 |
| 20260506085041 | 6 | 15 | 1.6 | 9.7 | 0.03 | 2.41 | 0.43 | 93 | 1009.1 |
| 20260506084612 | 6 | 24 | 0.0 | 3.2 | 0.00 | 2.39 | 0.41 | 93 | 1009.3 |
| 20260506084040 | 6 | 15 | 0.0 | 16.1 | 0.00 | 2.39 | 0.41 | 93 | 1009.6 |
| 20260506083539 | 6 | 5 | 8.0 | 16.1 | 0.00 | 2.39 | 0.41 | 93 | 1009.7 |
| 20260506083040 | 6 | 15 | 9.7 | 17.7 | 0.00 | 2.39 | 0.41 | 93 | 1009.6 |
| 20260506082541 | 6 | 13 | 11.3 | 17.7 | 0.00 | 2.39 | 0.41 | 93 | 1009.7 |
| 20260506082039 | 6 | 360 | 11.3 | 17.7 | 0.00 | 2.39 | 0.41 | 93 | 1009.6 |
| 20260506081550 | 6 | 355 | 9.7 | 17.7 | 0.03 | 2.39 | 0.41 | 94 | 1009.6 |
| 20260506081038 | 6 | 17 | 11.3 | 17.7 | 0.03 | 2.39 | 0.41 | 94 | 1009.5 |
| 20260506080539 | 6 | 13 | 14.5 | 20.9 | 0.03 | 2.39 | 0.41 | 94 | 1009.6 |
| 20260506073038 | 6 | 348 | 12.9 | 20.9 | 0.10 | 2.39 | 0.41 | 95 | 1009.2 |
| 20260506072537 | 6 | 347 | 12.9 | 27.4 | 0.13 | 2.39 | 0.41 | 95 | 1009.2 |
| 20260506072037 | 6 | 5 | 17.7 | 27.4 | 0.13 | 2.39 | 0.41 | 95 | 1008.7 |
| 20260506071536 | 6 | 360 | 14.5 | 24.1 | 0.13 | 2.36 | 0.38 | 95 | 1009.2 |
| 20260506071034 | 6 | 360 | 17.7 | 24.1 | 0.13 | 2.36 | 0.38 | 95 | 1009.0 |
| 20260506070533 | 6 | 351 | 16.1 | 24.1 | 0.13 | 2.36 | 0.38 | 95 | 1009.3 |
| 20260506062028 | 7 | 332 | 1.6 | 12.9 | 0.15 | 2.39 | 0.28 | 95 | 1009.4 |
| 20260506061529 | 7 | 329 | 0.0 | 1.6 | 0.15 | 2.36 | 0.25 | 95 | 1009.3 |
| 20260506061028 | 7 | 334 | 0.0 | 1.6 | 0.15 | 2.36 | 0.25 | 95 | 1008.9 |
| 20260506060530 | 7 | 360 | 0.0 | 0.0 | 0.13 | 2.34 | 0.23 | 95 | 1009.0 |
| 20260506051022 | 7 | 15 | 0.0 | 6.4 | 0.10 | 2.21 | 0.10 | 95 | 1009.5 |
| 20260506050522 | 7 | 28 | 0.0 | 1.6 | 0.10 | 2.21 | 0.10 | 95 | 1009.4 |
| 20260506045020 | 7 | 16 | 0.0 | 16.1 | 0.08 | 2.18 | 0.08 | 94 | 1009.1 |
| 20260506044521 | 7 | 24 | 3.2 | 16.1 | 0.05 | 2.16 | 0.05 | 94 | 1009.2 |
| 20260506044019 | 7 | 360 | 0.0 | 1.6 | 0.05 | 2.13 | 0.03 | 94 | 1009.6 |
| 20260506043521 | 7 | 17 | 0.0 | 3.2 | 0.05 | 2.13 | 0.03 | 94 | 1009.7 |
| 20260506043019 | 7 | 20 | 0.0 | 3.2 | 0.05 | 2.13 | 0.03 | 94 | 1009.7 |
| 20260506042518 | 7 | 350 | 0.0 | 6.4 | 0.03 | 2.11 | 0.00 | 94 | 1009.8 |
| 20260506042017 | 7 | 15 | 0.0 | 14.5 | 0.03 | 2.11 | 0.00 | 94 | 1009.9 |
| 20260506041516 | 7 | 5 | 1.6 | 17.7 | 0.03 | 2.11 | 0.00 | 94 | 1009.7 |
| 20260506041016 | 7 | 15 | 0.0 | 17.7 | 0.03 | 2.11 | 0.00 | 94 | 1009.4 |
| 20260506040515 | 7 | 16 | 0.0 | 17.7 | 0.05 | 2.11 | 0.00 | 94 | 1009.3 |
| 20260506040013 | 7 | 34 | 9.7 | 17.7 | 0.05 | 2.11 | 0.00 | 94 | 1009.2 |
| 20260506035512 | 7 | 27 | 8.0 | 20.9 | 0.08 | 2.11 | 2.11 | 94 | 1009.2 |
| 20260506035012 | 7 | 42 | 3.2 | 20.9 | 0.08 | 2.11 | 2.11 | 94 | 1009.3 |
| 20260506034511 | 7 | 33 | 0.0 | 0.0 | 0.08 | 2.11 | 2.11 | 94 | 1009.1 |
| 20260506034010 | 7 | 53 | 0.0 | 6.4 | 0.08 | 2.08 | 2.08 | 94 | 1009.3 |
| 20260506033511 | 7 | 53 | 0.0 | 6.4 | 0.10 | 2.08 | 2.08 | 95 | 1009.2 |
| 20260506033009 | 8 | 61 | 0.0 | 6.4 | 0.10 | 2.08 | 2.08 | 94 | 1009.2 |
| 20260506032509 | 8 | 40 | 0.0 | 0.0 | 0.10 | 2.08 | 2.08 | 95 | 1009.2 |
| 20260506032010 | 8 | 45 | 0.0 | 0.0 | 0.13 | 2.08 | 2.08 | 95 | 1009.1 |
| 20260506031509 | 8 | 40 | 0.0 | 8.0 | 0.13 | 2.08 | 2.08 | 95 | 1009.1 |
| 20260506031009 | 8 | 42 | 0.0 | 8.0 | 0.15 | 2.08 | 2.08 | 94 | 1009.4 |
| 20260506030512 | 8 | 19 | 0.0 | 1.6 | 0.13 | 2.06 | 2.06 | 94 | 1009.4 |
| 20260506030008 | 8 | 24 | 0.0 | 3.2 | 0.15 | 2.06 | 2.06 | 94 | 1009.5 |
| 20260506025507 | 8 | 21 | 0.0 | 3.2 | 0.15 | 2.03 | 2.03 | 95 | 1009.7 |
| 20260506025012 | 8 | 12 | 0.0 | 4.8 | 0.18 | 2.03 | 2.03 | 95 | 1009.8 |
| 20260506024507 | 8 | 5 | 0.0 | 14.5 | 0.18 | 2.01 | 2.01 | 94 | 1009.9 |
| 20260506024008 | 8 | 349 | 0.0 | 14.5 | 0.18 | 2.01 | 2.01 | 94 | 1010.0 |
| 20260506023507 | 8 | 16 | 0.0 | 8.0 | 0.18 | 1.98 | 1.98 | 94 | 1010.0 |
| 20260506023006 | 8 | 360 | 0.0 | 17.7 | 0.20 | 1.98 | 1.98 | 94 | 1010.1 |
| 20260506022506 | 8 | 13 | 1.6 | 19.3 | 0.20 | 1.96 | 1.96 | 94 | 1010.1 |
| 20260506022008 | 8 | 360 | 4.8 | 19.3 | 0.25 | 1.96 | 1.96 | 94 | 1010.3 |
| 20260506021503 | 8 | 360 | 0.0 | 16.1 | 0.28 | 1.96 | 1.96 | 94 | 1010.2 |
| 20260506021002 | 8 | 348 | 1.6 | 19.3 | 0.28 | 1.93 | 1.93 | 95 | 1009.9 |
| 20260506020500 | 8 | 17 | 1.6 | 19.3 | 0.28 | 1.91 | 1.91 | 94 | 1009.8 |
| 20260506020100 | 8 | 5 | 0.0 | 16.1 | 0.30 | 1.91 | 1.91 | 94 | 1009.8 |
| 20260506015600 | 8 | 346 | 0.0 | 8.0 | 0.30 | 1.88 | 1.88 | 95 | 1009.8 |
| 20260506015102 | 8 | 13 | 0.0 | 8.0 | 0.33 | 1.85 | 1.85 | 94 | 1009.7 |
| 20260506014559 | 9 | 10 | 0.0 | 1.6 | 0.36 | 1.83 | 1.83 | 95 | 1009.7 |
| 20260506014102 | 9 | 19 | 0.0 | 9.7 | 0.38 | 1.83 | 1.83 | 95 | 1009.7 |
| 20260506013558 | 9 | 5 | 0.0 | 12.9 | 0.41 | 1.80 | 1.80 | 94 | 1009.9 |
| 20260506013108 | 9 | 9 | 0.0 | 8.0 | 0.43 | 1.78 | 1.78 | 95 | 1009.7 |
| 20260506012557 | 9 | 5 | 0.0 | 6.4 | 0.46 | 1.75 | 1.75 | 94 | 1009.7 |
| 20260506012055 | 9 | 355 | 0.0 | 20.9 | 0.51 | 1.73 | 1.73 | 94 | 1009.5 |
| 20260506011615 | 9 | 360 | 4.8 | 24.1 | 0.53 | 1.70 | 1.70 | 94 | 1009.3 |
| 20260506011054 | 9 | 346 | 4.8 | 24.1 | 0.53 | 1.65 | 1.65 | 94 | 1009.2 |
| 20260506010553 | 9 | 5 | 1.6 | 19.3 | 0.58 | 1.63 | 1.63 | 95 | 1008.9 |
| 20260506010057 | 9 | 13 | 0.0 | 12.9 | 0.61 | 1.60 | 1.60 | 94 | 1009.1 |
| 20260506005555 | 9 | 341 | 0.0 | 14.5 | 0.64 | 1.57 | 1.57 | 94 | 1009.2 |
| 20260506005052 | 9 | 349 | 0.0 | 19.3 | 0.64 | 1.52 | 1.52 | 94 | 1009.0 |
| 20260506004553 | 9 | 360 | 6.4 | 19.3 | 0.64 | 1.45 | 1.45 | 94 | 1009.0 |
| 20260506004051 | 9 | 360 | 0.0 | 14.5 | 0.64 | 1.42 | 1.42 | 94 | 1009.0 |
| 20260506003550 | 10 | 360 | 1.6 | 24.1 | 0.64 | 1.40 | 1.40 | 94 | 1009.0 |
| 20260506003053 | 10 | 360 | 4.8 | 24.1 | 0.61 | 1.35 | 1.35 | 94 | 1008.9 |
| 20260506002547 | 10 | 360 | 3.2 | 20.9 | 0.58 | 1.30 | 1.30 | 93 | 1009.0 |
| 20260506002046 | 10 | 343 | 3.2 | 20.9 | 0.53 | 1.22 | 1.22 | 93 | 1008.7 |